Location: Kuala Lumpur International
(3.1298°N, 101.5524°E)
Time: 10:51:39
(UTC+00:00)

Meteor 1-27 - Pass Details

Date: 05 August 2024
Orbit: 836 x 892 km, 81.3° (Epoch: 18 September)

Event Time Altitude Azimuth Distance (km) Brightness Sun altitude
Rises 13:19:08 0° 351° (N) 3,373 7.7 -27.4°
Reaches altitude 10° 13:21:31 10° 350° (N) 2,444 6.9 -27.9°
Maximum altitude 13:27:02 74° 266° (W) 877 4.3 -29.2°
Enters shadow 13:27:21 72° 236° (SW) 887 4.2 -29.3°
